Total_Precipitation_Accumulation
1.54 1.68 1.73 1.73 1.66 1.81 1.86 1.86 1.88 1.88 1.86 1.94 2.04 2.21 2.27 2.37 2.49 2.62 2.41 2.54 2.68 2.84 2.72 2.74 2.78 2.88 2.86 2.77 2.87 2.94 3.14 3.45 3.32 2.73 2.59 2.56 2.43 2.17 2.14 2.03 1.99 2.11 2.17
1.54 1.71 1.81 1.98 1.92 1.86 1.86 1.92 1.98 2.08 2.16 2.12 2.18 2.25 2.16 2.25 2.50 2.56 2.50 2.57 2.63 2.65 2.83 3.11 3.02 3.09 3.04 2.87 3.01 2.95 3.06 3.44 3.31 2.93 2.87 2.87 2.80 2.54 2.39 2.18 1.95 1.96 2.12
1.71 1.83 1.98 2.09 2.00 1.90 2.03 2.12 2.13 2.28 2.45 2.49 2.49 2.35 2.29 2.31 2.40 2.50 2.61 2.63 2.64 2.69 2.83 2.90 2.96 3.21 3.09 3.00 2.92 2.88 3.01 3.23 3.40 3.08 2.94 3.14 3.00 2.69 2.56 2.25 2.03 2.14 1.94
1.86 2.07 2.17 2.24 2.15 2.09 2.20 2.30 2.32 2.39 2.55 2.68 2.64 2.58 2.52 2.40 2.26 2.23 2.33 2.43 2.57 2.71 2.75 2.68 2.77 3.02 3.12 3.13 2.91 2.93 3.11 3.24 3.31 3.22 3.05 3.16 3.19 3.09 2.91 2.63 2.50 2.33 2.15
2.07 2.21 2.24 2.35 2.36 2.36 2.47 2.49 2.43 2.48 2.51 2.68 2.73 2.77 2.73 2.51 2.21 2.28 2.45 2.44 2.62 2.60 2.51 2.41 2.42 2.67 2.92 3.02 2.74 2.81 3.03 3.04 3.05 3.08 3.05 3.13 3.19 3.35 3.17 2.84 2.58 2.42 2.17
2.24 2.50 2.55 2.60 2.58 2.64 2.77 2.82 2.75 2.76 2.89 2.91 2.79 2.72 2.64 2.23 2.41 2.48 2.49 2.51 2.64 2.63 2.53 2.42 2.31 2.27 2.30 2.49 2.61 2.75 2.92 2.91 2.93 3.11 3.24 3.30 3.30 3.37 3.37 3.13 2.82 2.57 2.32
2.29 2.52 2.70 2.79 2.84 2.92 2.99 3.00 2.94 3.05 3.24 3.22 3.05 2.85 2.68 2.62 2.61 2.40 2.36 2.23 2.27 2.34 2.45 2.43 2.12 1.91 2.04 1.97 2.22 2.39 2.47 2.57 2.68 2.93 3.09 3.14 3.26 3.41 3.53 3.24 3.04 2.83 2.53
2.56 2.64 2.75 2.85 2.92 2.98 3.05 2.93 2.96 3.12 3.18 3.19 3.07 2.91 2.76 2.67 2.60 2.31 2.29 2.07 2.05 2.09 2.17 2.22 2.16 1.99 1.99 2.13 2.13 2.04 1.97 2.04 2.25 2.32 2.45 2.72 2.96 3.19 3.41 3.32 3.25 2.94 2.57
2.73 2.72 2.69 2.82 2.94 2.98 3.00 2.99 3.05 3.10 2.99 2.85 2.74 2.71 2.68 2.72 2.75 2.42 2.25 2.00 2.03 1.99 1.99 2.02 2.05 1.95 2.15 2.13 2.05 1.99 1.98 1.98 2.08 2.21 2.23 2.38 2.64 2.80 2.97 3.09 3.07 2.93 2.64
2.72 2.79 2.77 2.88 2.95 2.96 3.04 3.10 3.04 2.99 2.89 2.79 2.62 2.59 2.58 2.55 2.64 2.30 2.15 1.95 1.96 1.95 1.99 2.00 2.04 1.97 2.03 1.93 1.83 1.92 1.89 1.91 2.02 2.04 2.05 2.07 2.15 2.48 2.86 2.68 2.72 2.80 2.57
2.60 2.80 2.99 3.11 3.11 3.09 3.13 3.03 2.95 2.87 2.89 2.84 2.69 2.57 2.52 2.45 2.50 2.24 2.07 1.81 1.93 2.14 2.13 2.04 2.05 2.07 1.81 1.76 1.70 1.72 1.77 1.85 1.96 1.85 1.76 1.78 1.90 2.08 2.34 2.42 2.41 2.42 2.38
2.38 2.57 2.72 2.87 2.97 2.96 3.01 2.96 3.00 2.93 2.81 2.69 2.56 2.41 2.33 2.33 2.24 2.15 1.98 1.80 1.88 2.02 2.11 2.15 2.19 2.10 1.76 1.63 1.51 1.49 1.59 1.59 1.62 1.67 1.66 1.65 1.73 1.87 2.05 2.21 2.28 2.35 2.27
2.18 2.36 2.58 2.74 2.98 3.09 3.12 3.06 2.96 2.85 2.65 2.45 2.32 2.18 2.19 2.25 2.24 2.08 1.87 1.78 1.84 1.86 1.95 2.11 2.00 1.89 1.69 1.46 1.41 1.42 1.45 1.39 1.48 1.62 1.67 1.65 1.65 1.73 1.99 2.33 2.51 2.60 2.52
2.18 2.27 2.42 2.55 2.71 2.95 3.03 2.95 2.78 2.52 2.36 2.29 2.22 2.19 2.24 2.29 2.18 2.01 1.79 1.66 1.74 1.80 1.84 1.92 1.91 1.87 1.77 1.62 1.52 1.42 1.34 1.40 1.50 1.56 1.69 1.82 1.94 2.01 2.12 2.24 2.42 2.50 2.53
2.02 2.04 2.07 2.26 2.44 2.61 2.64 2.54 2.38 2.25 2.30 2.33 2.27 2.23 2.15 2.07 2.14 2.08 1.84 1.73 1.73 1.81 1.81 1.81 1.84 1.94 1.96 1.91 1.82 1.71 1.66 1.68 1.69 1.68 1.81 1.93 1.93 1.93 1.97 2.10 2.27 2.33 2.22
2.03 2.00 1.93 1.89 1.99 2.26 2.54 2.58 2.41 2.17 2.18 2.12 2.04 1.99 1.95 1.87 1.90 1.88 1.78 1.73 1.80 1.88 1.77 1.81 1.96 2.03 2.05 2.05 2.03 1.88 1.77 1.68 1.63 1.71 1.77 1.84 1.91 1.93 1.94 2.06 2.21 2.23 2.09
2.05 2.01 1.91 1.80 1.84 2.01 2.33 2.60 2.64 2.39 2.14 1.99 1.78 1.63 1.57 1.54 1.57 1.62 1.67 1.64 1.64 1.64 1.54 1.66 1.86 1.91 1.94 1.97 1.97 1.87 1.79 1.74 1.73 1.81 1.90 1.95 1.99 1.97 1.96 2.00 2.12 2.17 2.09
1.97 1.97 1.83 1.72 1.78 1.90 2.13 2.43 2.62 2.57 2.33 2.02 1.72 1.54 1.47 1.42 1.44 1.50 1.56 1.48 1.40 1.35 1.30 1.45 1.61 1.76 1.87 1.99 2.05 2.03 1.95 1.91 1.87 1.84 1.94 2.00 2.08 2.12 2.07 2.00 2.05 2.14 2.11
1.92 1.94 1.90 1.81 1.79 1.79 1.97 2.26 2.47 2.52 2.40 2.18 1.85 1.58 1.47 1.39 1.39 1.51 1.47 1.32 1.29 1.28 1.27 1.31 1.40 1.60 1.85 2.00 2.10 2.18 2.18 2.10 1.95 1.91 1.95 2.01 2.06 2.15 2.13 2.03 2.04 2.19 2.18
1.72 1.77 1.68 1.64 1.67 1.61 1.65 1.83 2.13 2.32 2.28 2.21 1.96 1.53 1.30 1.25 1.28 1.48 1.56 1.56 1.50 1.35 1.27 1.31 1.39 1.52 1.71 1.93 2.02 2.01 2.03 1.97 1.93 1.91 1.88 1.95 2.03 2.08 2.06 2.02 2.04 2.14 2.11
1.50 1.55 1.52 1.39 1.48 1.55 1.61 1.76 2.02 2.23 2.19 2.11 1.92 1.63 1.44 1.33 1.37 1.42 1.53 1.63 1.63 1.55 1.46 1.38 1.37 1.42 1.57 1.71 1.78 1.83 1.88 1.86 1.81 1.83 1.83 1.87 1.96 2.04 2.11 2.10 2.06 2.10 2.13
1.30 1.32 1.32 1.26 1.35 1.44 1.53 1.75 2.00 2.13 2.06 1.96 1.84 1.66 1.57 1.51 1.52 1.56 1.57 1.55 1.48 1.41 1.36 1.37 1.38 1.43 1.53 1.58 1.65 1.77 1.84 1.83 1.78 1.75 1.78 1.82 1.88 1.92 2.01 2.08 2.04 2.08 2.13
1.20 1.21 1.22 1.21 1.26 1.37 1.51 1.67 1.81 1.85 1.83 1.82 1.67 1.52 1.51 1.56 1.55 1.55 1.57 1.52 1.43 1.34 1.31 1.37 1.40 1.43 1.48 1.48 1.50 1.60 1.67 1.68 1.69 1.69 1.78 1.86 1.89 1.92 1.99 2.04 2.06 2.14 2.16
1.27 1.32 1.35 1.38 1.42 1.48 1.57 1.66 1.70 1.67 1.60 1.57 1.53 1.52 1.54 1.57 1.54 1.52 1.51 1.51 1.49 1.47 1.42 1.36 1.34 1.33 1.37 1.41 1.42 1.42 1.48 1.50 1.49 1.52 1.59 1.71 1.80 1.83 1.87 1.93 1.97 2.02 2.08
1.19 1.31 1.36 1.43 1.48 1.53 1.60 1.64 1.63 1.58 1.48 1.43 1.41 1.43 1.44 1.41 1.46 1.49 1.47 1.46 1.45 1.40 1.29 1.25 1.23 1.18 1.15 1.16 1.16 1.18 1.31 1.31 1.24 1.25 1.34 1.50 1.59 1.63 1.68 1.78 1.88 1.96 2.02
1.08 1.17 1.30 1.33 1.37 1.46 1.56 1.62 1.58 1.52 1.45 1.39 1.39 1.39 1.37 1.35 1.36 1.38 1.37 1.37 1.37 1.34 1.32 1.29 1.19 1.14 1.12 1.11 1.11 1.17 1.18 1.09 1.06 1.09 1.10 1.21 1.40 1.49 1.58 1.67 1.74 1.92 1.99